Miles City, MT

2:22 PM MDT on April 24, 2017 (GMT -0600)
Wiley

Weather History for KMLS - November, 2012

Change the Weather History Date:

Tuesday, November 20, 2012

  Actual Average Record
Temperature  
Mean Temperature 45 °F 30 °F  
Max Temperature 56 °F 41 °F 65 °F (2002)
Min Temperature 34 °F 19 °F -18 °F (1985)
Degree Days  
Heating Degree Days 20 35  
Month to date heating degree days 567 606  
Since 1 July heating degree days 1287 1417  
Cooling Degree Days 0 0  
Month to date cooling degree days 0 0  
Year to date cooling degree days 1107 730  
Moisture  
Dew Point 33 °F    
Average Humidity 64    
Maximum Humidity 82    
Minimum Humidity 46    
Precipitation  
Precipitation 0.00 in 0.01 in 0.66 in (1977)
Month to date precipitation 0.26 0.29  
Year to date precipitation 5.95 12.05  
Sea Level Pressure  
Sea Level Pressure 29.90 in    
Wind  
Wind Speed 10 mph (SSE)    
Max Wind Speed 15 mph    
Max Gust Speed 17 mph    
Visibility 10 miles    
Events      
T = Trace of Precipitation, MM = Missing Value Source: NWS Daily Summary

Daily Weather History Graph

Daily Weather History Graph

Search for Another Location

Airport or City:

Trip Planner

Search our weather history database for the weather conditions in past years. The results will help you decide how hot, cold, wet, or windy it might be!

Date:

Astronomy

Nov. 20, 2012 Rise Set
Actual Time 7:13 AM MST 4:25 PM MST
Civil Twilight 6:39 AM MST 4:58 PM MST
Nautical Twilight 6:02 AM MST 5:35 PM MST
Astronomical Twilight 5:26 AM MST 6:11 PM MST
Moon 12:36 PM MST (11/20) No Moon Set
Length of Visible Light 10h 18m
Length of Day
9h 12m
First Quarter, 52% of the Moon is Illuminated
Nov 20
First Quarter
Nov 28
Full
Dec 6
Last Quarter
Dec 13
New
Dec 19
First Quarter

Hourly Weather History & Observations

Time (MST) Temp. Windchill Dew Point Humidity Pressure Visibility Wind Dir Wind Speed Gust Speed Precip Events Conditions
12:53 AM 37.9 °F 30.5 °F 30.0 °F 73% 29.94 in 10.0 mi SSE 11.5 mph - N/A   Clear
1:53 AM 37.0 °F 29.8 °F 28.9 °F 73% 29.94 in 10.0 mi SSE 10.4 mph - N/A   Clear
2:53 AM 37.0 °F 28.9 °F 28.9 °F 73% 29.93 in 10.0 mi SSE 12.7 mph - N/A   Clear
3:53 AM 37.0 °F 28.5 °F 28.9 °F 73% 29.92 in 10.0 mi SSE 13.8 mph - N/A   Clear
4:53 AM 37.0 °F 29.3 °F 28.9 °F 73% 29.93 in 10.0 mi SSE 11.5 mph - N/A   Clear
5:53 AM 35.1 °F 25.9 °F 28.9 °F 78% 29.94 in 10.0 mi SSE 13.8 mph - N/A   Clear
6:53 AM 34.0 °F 25.0 °F 28.0 °F 79% 29.96 in 10.0 mi SSE 12.7 mph - N/A   Clear
7:53 AM 36.0 °F 27.5 °F 28.9 °F 76% 29.96 in 10.0 mi SSE 12.7 mph - N/A   Clear
8:53 AM 37.0 °F 28.9 °F 28.9 °F 73% 29.97 in 10.0 mi SSE 12.7 mph - N/A   Clear
9:53 AM 42.1 °F 34.9 °F 30.9 °F 65% 29.96 in 10.0 mi SSE 13.8 mph - N/A   Clear
10:53 AM 44.1 °F 37.7 °F 32.0 °F 63% 29.96 in 10.0 mi SSE 12.7 mph - N/A   Clear
11:53 AM 50.0 °F - 33.1 °F 52% 29.93 in 10.0 mi SSE 10.4 mph - N/A   Clear
12:53 PM 53.1 °F - 34.0 °F 48% 29.90 in 10.0 mi SSE 10.4 mph - N/A   Clear
1:53 PM 54.0 °F - 35.1 °F 49% 29.88 in 10.0 mi SSE 8.1 mph - N/A   Clear
2:53 PM 55.0 °F - 36.0 °F 49% 29.87 in 10.0 mi SSE 8.1 mph - N/A   Clear
3:53 PM 53.1 °F - 37.0 °F 55% 29.88 in 10.0 mi South 5.8 mph - N/A   Clear
4:53 PM 54.0 °F - 37.9 °F 55% 29.87 in 10.0 mi SE 10.4 mph - N/A   Clear
5:53 PM 51.1 °F - 37.9 °F 61% 29.87 in 10.0 mi SSE 6.9 mph - N/A   Clear
6:53 PM 50.0 °F - 37.0 °F 61% 29.86 in 10.0 mi SSE 9.2 mph - N/A   Scattered Clouds
7:53 PM 50.0 °F - 37.0 °F 61% 29.86 in 10.0 mi South 6.9 mph - N/A   Scattered Clouds
8:53 PM 48.0 °F - 36.0 °F 63% 29.85 in 10.0 mi SE 9.2 mph - N/A   Partly Cloudy
9:53 PM 48.0 °F - 36.0 °F 63% 29.83 in 10.0 mi SSE 6.9 mph - N/A   Clear
10:53 PM 46.0 °F 41.4 °F 36.0 °F 68% 29.83 in 10.0 mi SSE 9.2 mph - N/A   Clear
11:53 PM 45.0 °F 40.1 °F 35.1 °F 68% 29.82 in 10.0 mi SE 9.2 mph - N/A   Clear